When you browse on this site, cookies collect data to enhance your experience and personalize the content and advertising you see.
Visit our Privacy Policy to learn more. By continuing to use the site, you agree to this use of cookies and data.

Hourly Weather Tegucigalpa

Today, 4 July, Saturday

Time Temperature Precipitation Wind Pressure Humidity
00:00 +20°C° 0 mm 1 mps 674 mmHg 97%
01:00 +20°C° 0 mm 1 mps 673 mmHg 97%
02:00 +20°C° 0 mm 1 mps 673 mmHg 97%
03:00 +20°C° 0 mm 1 mps 672 mmHg 97%
04:00 +20°C° 0.1 mm 1 mps 672 mmHg 97%
05:00 +20°C° 0.1 mm 1 mps 673 mmHg 97%
06:00 +20°C° 0 mm 1 mps 673 mmHg 96%
07:00 +22°C° 0 mm 1 mps 673 mmHg 91%
08:00 +23°C° 0 mm 2 mps 674 mmHg 85%
09:00 +25°C° 0 mm 2 mps 674 mmHg 80%
10:00 +26°C° 0 mm 2 mps 674 mmHg 71%
11:00 +28°C° 0 mm 3 mps 674 mmHg 63%
12:00 +29°C° 0 mm 3 mps 675 mmHg 55%
13:00 +29°C° 0.1 mm 3 mps 674 mmHg 55%
14:00 +30°C° 0.1 mm 3 mps 673 mmHg 54%
15:00 +30°C° 0.1 mm 3 mps 673 mmHg 53%
16:00 +28°C° 0.7 mm 2 mps 673 mmHg 64%
17:00 +26°C° 0.7 mm 2 mps 672 mmHg 74%
18:00 +24°C° 0.7 mm 1 mps 672 mmHg 84%
19:00 +23°C° 0.4 mm 1 mps 673 mmHg 87%
20:00 +22°C° 0.4 mm 1 mps 673 mmHg 90%
21:00 +21°C° 0.4 mm 1 mps 673 mmHg 93%
22:00 +21°C° 0 mm 1 mps 673 mmHg 94%
23:00 +21°C° 0 mm 1 mps 673 mmHg 94%

Tomorrow, 5 July, Sunday

Time Temperature Precipitation Wind Pressure Humidity
00:00 +21°C° 0 mm 1 mps 673 mmHg 95%
01:00 +21°C° 0 mm 1 mps 673 mmHg 95%
02:00 +20°C° 0 mm 1 mps 672 mmHg 96%
03:00 +20°C° 0 mm 1 mps 672 mmHg 96%
04:00 +20°C° 0 mm 1 mps 672 mmHg 97%
05:00 +20°C° 0 mm 1 mps 672 mmHg 97%
06:00 +20°C° 0 mm 1 mps 673 mmHg 97%
07:00 +22°C° 0 mm 1 mps 673 mmHg 90%
08:00 +24°C° 0 mm 1 mps 674 mmHg 83%
09:00 +25°C° 0 mm 2 mps 675 mmHg 76%
10:00 +27°C° 0 mm 2 mps 674 mmHg 69%
11:00 +28°C° 0 mm 2 mps 674 mmHg 62%
12:00 +29°C° 0 mm 3 mps 674 mmHg 56%
13:00 +29°C° 0 mm 3 mps 674 mmHg 56%
14:00 +29°C° 0 mm 3 mps 673 mmHg 57%
15:00 +29°C° 0 mm 3 mps 673 mmHg 57%
16:00 +27°C° 0.4 mm 2 mps 673 mmHg 66%
17:00 +26°C° 0.4 mm 2 mps 672 mmHg 76%
18:00 +24°C° 0.4 mm 1 mps 672 mmHg 85%
19:00 +23°C° 0.1 mm 1 mps 673 mmHg 88%
20:00 +22°C° 0.1 mm 1 mps 673 mmHg 90%
21:00 +21°C° 0.1 mm 1 mps 673 mmHg 93%
22:00 +21°C° 0 mm 1 mps 673 mmHg 94%
23:00 +20°C° 0 mm 1 mps 673 mmHg 95%

Day after tomorrow, 6 July, Monday

Time Temperature Precipitation Wind Pressure Humidity
00:00 +20°C° 0 mm 1 mps 673 mmHg 97%
01:00 +20°C° 0 mm 1 mps 673 mmHg 97%
02:00 +20°C° 0 mm 1 mps 673 mmHg 97%
03:00 +20°C° 0 mm 1 mps 673 mmHg 97%
04:00 +20°C° 0 mm 1 mps 673 mmHg 97%
05:00 +20°C° 0 mm 1 mps 673 mmHg 96%
06:00 +19°C° 0 mm 1 mps 673 mmHg 96%
07:00 +21°C° 0 mm 1 mps 674 mmHg 86%
08:00 +23°C° 0 mm 2 mps 675 mmHg 76%
09:00 +25°C° 0 mm 2 mps 675 mmHg 66%
10:00 +26°C° 0 mm 2 mps 675 mmHg 60%
11:00 +28°C° 0 mm 2 mps 675 mmHg 54%
12:00 +29°C° 0 mm 3 mps 675 mmHg 47%
13:00 +29°C° 0 mm 2 mps 675 mmHg 47%
14:00 +29°C° 0 mm 2 mps 674 mmHg 47%
15:00 +30°C° 0 mm 2 mps 674 mmHg 48%
16:00 +28°C° 0.2 mm 2 mps 674 mmHg 58%
17:00 +26°C° 0.2 mm 2 mps 673 mmHg 69%
18:00 +24°C° 0.2 mm 1 mps 673 mmHg 80%
19:00 +23°C° 0 mm 1 mps 673 mmHg 83%
20:00 +22°C° 0 mm 1 mps 674 mmHg 87%
21:00 +21°C° 0 mm 1 mps 674 mmHg 90%
22:00 +21°C° 0 mm 1 mps 674 mmHg 92%
23:00 +20°C° 0 mm 1 mps 674 mmHg 93%

7 July, Tuesday

Time Temperature Precipitation Wind Pressure Humidity
00:00 +20°C° 0 mm 1 mps 674 mmHg 95%
01:00 +20°C° 0 mm 1 mps 673 mmHg 95%
02:00 +19°C° 0 mm 1 mps 673 mmHg 96%
03:00 +19°C° 0 mm 1 mps 673 mmHg 96%
04:00 +19°C° 0 mm 1 mps 673 mmHg 96%
05:00 +19°C° 0 mm 1 mps 673 mmHg 96%
06:00 +19°C° 0 mm 1 mps 673 mmHg 96%
07:00 +21°C° 0 mm 1 mps 674 mmHg 87%
08:00 +23°C° 0 mm 2 mps 675 mmHg 79%
09:00 +25°C° 0 mm 2 mps 675 mmHg 70%
10:00 +26°C° 0 mm 2 mps 675 mmHg 63%
11:00 +28°C° 0 mm 2 mps 675 mmHg 57%
12:00 +29°C° 0 mm 2 mps 675 mmHg 50%
13:00 +29°C° 0.1 mm 2 mps 675 mmHg 53%
14:00 +29°C° 0.1 mm 2 mps 674 mmHg 56%
15:00 +28°C° 0.1 mm 2 mps 673 mmHg 59%
16:00 +27°C° 0.1 mm 2 mps 673 mmHg 64%
17:00 +26°C° 0.1 mm 2 mps 673 mmHg 70%
18:00 +25°C° 0.1 mm 1 mps 673 mmHg 76%
19:00 +23°C° 0 mm 1 mps 673 mmHg 79%
20:00 +22°C° 0 mm 1 mps 674 mmHg 83%
21:00 +21°C° 0 mm 1 mps 674 mmHg 87%
22:00 +20°C° 0 mm 1 mps 674 mmHg 89%
23:00 +20°C° 0 mm 1 mps 674 mmHg 91%

8 July, Wednesday

Time Temperature Precipitation Wind Pressure Humidity
00:00 +19°C° 0 mm 1 mps 673 mmHg 94%
01:00 +19°C° 0 mm 1 mps 673 mmHg 94%
02:00 +19°C° 0 mm 1 mps 673 mmHg 95%
03:00 +19°C° 0 mm 1 mps 672 mmHg 95%
04:00 +19°C° 0 mm 1 mps 672 mmHg 95%
05:00 +19°C° 0 mm 1 mps 673 mmHg 95%
06:00 +19°C° 0 mm 1 mps 673 mmHg 95%
07:00 +21°C° 0 mm 1 mps 673 mmHg 85%
08:00 +24°C° 0 mm 2 mps 674 mmHg 75%
09:00 +26°C° 0 mm 2 mps 675 mmHg 64%
10:00 +27°C° 0 mm 2 mps 675 mmHg 61%
11:00 +28°C° 0 mm 3 mps 675 mmHg 57%
12:00 +30°C° 0 mm 3 mps 675 mmHg 53%
13:00 +29°C° 0.3 mm 4 mps 674 mmHg 55%
14:00 +29°C° 0.3 mm 4 mps 674 mmHg 56%
15:00 +29°C° 0.3 mm 4 mps 673 mmHg 58%
16:00 +27°C° 0.2 mm 3 mps 673 mmHg 67%
17:00 +25°C° 0.2 mm 2 mps 673 mmHg 76%
18:00 +23°C° 0.2 mm 1 mps 672 mmHg 85%
19:00 +23°C° 0 mm 1 mps 673 mmHg 87%
20:00 +22°C° 0 mm 1 mps 673 mmHg 89%
21:00 +21°C° 0 mm 1 mps 673 mmHg 91%
22:00 +21°C° 0 mm 1 mps 673 mmHg 92%
23:00 +20°C° 0 mm 1 mps 673 mmHg 93%

9 July, Thursday

Time Temperature Precipitation Wind Pressure Humidity
00:00 +20°C° 0 mm 1 mps 672 mmHg 94%
01:00 +20°C° 0 mm 1 mps 672 mmHg 95%
02:00 +19°C° 0 mm 1 mps 672 mmHg 96%
03:00 +19°C° 0 mm 1 mps 672 mmHg 97%
04:00 +19°C° 0 mm 1 mps 672 mmHg 97%
05:00 +18°C° 0 mm 2 mps 672 mmHg 97%
06:00 +19°C° 0 mm 2 mps 672 mmHg 97%
07:00 +21°C° 0 mm 2 mps 673 mmHg 87%
08:00 +24°C° 0 mm 2 mps 674 mmHg 78%
09:00 +26°C° 0 mm 3 mps 674 mmHg 69%
10:00 +27°C° 0 mm 3 mps 674 mmHg 64%
11:00 +28°C° 0 mm 4 mps 674 mmHg 59%
12:00 +29°C° 0 mm 4 mps 674 mmHg 54%
13:00 +29°C° 0 mm 4 mps 674 mmHg 51%
14:00 +30°C° 0 mm 4 mps 673 mmHg 48%
15:00 +30°C° 0 mm 4 mps 673 mmHg 46%
16:00 +28°C° 0 mm 3 mps 673 mmHg 53%
17:00 +26°C° 0 mm 2 mps 672 mmHg 59%
18:00 +24°C° 0 mm 1 mps 672 mmHg 66%
19:00 +23°C° 0 mm 1 mps 673 mmHg 70%
20:00 +22°C° 0 mm 1 mps 673 mmHg 73%
21:00 +21°C° 0 mm 1 mps 673 mmHg 77%
22:00 +21°C° 0 mm 1 mps 673 mmHg 80%
23:00 +21°C° 0 mm 1 mps 673 mmHg 83%
Show more